Weather History for Huntsville, AL

Change the Weather History Date:

Saturday, March 9, 2013

  Actual Average Record
Temperature  
Mean Temperature 53 °F 52 °F  
Max Temperature 67 °F 63 °F 84 °F (1925)
Min Temperature 38 °F 41 °F 15 °F (1996)
Degree Days  
Heating Degree Days 12 14  
Month to date heating degree days 207 132  
Since 1 July heating degree days 2479 2584  
Cooling Degree Days 0 0  
Month to date cooling degree days 0 0  
Year to date cooling degree days 6 1  
Growing Degree Days 5 (Base 50)    
Moisture  
Dew Point 33 °F    
Average Humidity 53    
Maximum Humidity 76    
Minimum Humidity 29    
Precipitation  
Precipitation 0.00 in 0.17 in 2.60 in (1905)
Month to date precipitation 0.79 1.50  
Year to date precipitation 12.67 11.23  
Snow  
Snow 0.00 in - - ()
Month to date snowfall T  
Since 1 July snowfall 0.7  
Snow Depth 0.00 in    
Sea Level Pressure  
Sea Level Pressure 30.17 in    
Wind  
Wind Speed 9 mph (SE)    
Max Wind Speed 17 mph    
Max Gust Speed 21 mph    
Visibility 10 miles    
Events      
T = Trace of Precipitation, MM = Missing Value Source: NWS Daily Summary

Daily Weather History Graph

Daily Weather History Graph

Search for Another Location

Airport:

Trip Planner

Search our weather history database for the weather conditions in past years. The results will help you decide how hot, cold, wet, or windy it might be!

Date:

Astronomy

Mar. 09, 2013 Rise Set
Actual Time 6:05 AM CST 5:50 PM CST
Civil Twilight 5:40 AM CST 6:15 PM CST
Nautical Twilight 5:11 AM CST 6:44 PM CST
Astronomical Twilight 4:41 AM CST 7:13 PM CST
Moon 4:24 AM CST (3/9) 3:54 PM CST (3/9)
Length of Visible Light 12h 34m
Length of Day
11h 44m
Waning Crescent, 5% of the Moon is Illuminated
Mar 9
Waning Crescent
Mar 11
New
Mar 19
First Quarter
Mar 27
Full
Apr 2
Last Quarter

Hourly Weather History & Observations

Time (CST) Temp. Windchill Dew Point Humidity Pressure Visibility Wind Dir Wind Speed Gust Speed Precip Events Conditions
12:53 AM 41.0 °F - 28.0 °F 60% 30.23 in 10.0 mi Calm Calm - N/A   Clear
1:53 AM 37.9 °F 35.5 °F 30.0 °F 73% 30.22 in 10.0 mi ESE 3.5 mph - N/A   Clear
2:53 AM 39.9 °F - 32.0 °F 73% 30.20 in 10.0 mi Calm Calm - N/A   Clear
3:53 AM 42.1 °F - 30.9 °F 65% 30.21 in 10.0 mi Calm Calm - N/A   Clear
4:53 AM 45.0 °F 40.1 °F 30.9 °F 58% 30.21 in 10.0 mi ESE 9.2 mph - N/A   Clear
5:53 AM 46.0 °F 40.2 °F 28.0 °F 50% 30.23 in 10.0 mi ESE 12.7 mph - N/A   Mostly Cloudy
6:53 AM 46.9 °F - 28.9 °F 50% 30.22 in 10.0 mi ESE 10.4 mph - N/A   Mostly Cloudy
7:53 AM 48.9 °F - 28.0 °F 44% 30.25 in 10.0 mi SE 10.4 mph - N/A   Mostly Cloudy
8:53 AM 48.9 °F - 28.9 °F 46% 30.24 in 10.0 mi ESE 13.8 mph - N/A   Mostly Cloudy
9:53 AM 52.0 °F - 30.0 °F 43% 30.24 in 10.0 mi ESE 6.9 mph - N/A   Overcast
10:53 AM 59.0 °F - 32.0 °F 36% 30.24 in 10.0 mi South 11.5 mph 17.3 mph N/A   Mostly Cloudy
11:53 AM 59.0 °F - 32.0 °F 36% 30.22 in 10.0 mi South 5.8 mph - N/A   Overcast
12:53 PM 64.0 °F - 33.1 °F 31% 30.18 in 10.0 mi SE 9.2 mph - N/A   Mostly Cloudy
1:53 PM 66.0 °F - 34.0 °F 30% 30.14 in 10.0 mi SSE 15.0 mph - N/A   Mostly Cloudy
2:53 PM 66.0 °F - 35.1 °F 32% 30.14 in 10.0 mi SSE 13.8 mph - N/A   Mostly Cloudy
3:53 PM 64.9 °F - 35.1 °F 33% 30.12 in 10.0 mi SSE 13.8 mph - N/A   Mostly Cloudy
4:53 PM 63.0 °F - 37.0 °F 38% 30.12 in 10.0 mi SSE 9.2 mph - N/A   Mostly Cloudy
5:53 PM 60.1 °F - 37.0 °F 42% 30.12 in 10.0 mi SE 8.1 mph - N/A   Mostly Cloudy
6:53 PM 59.0 °F - 36.0 °F 42% 30.10 in 10.0 mi SE 13.8 mph - N/A   Mostly Cloudy
7:53 PM 57.9 °F - 36.0 °F 44% 30.10 in 10.0 mi ESE 10.4 mph - N/A   Mostly Cloudy
8:53 PM 57.0 °F - 36.0 °F 45% 30.09 in 10.0 mi ESE 11.5 mph - N/A   Mostly Cloudy
9:53 PM 55.9 °F - 35.1 °F 45% 30.07 in 10.0 mi ESE 10.4 mph - N/A   Scattered Clouds
10:53 PM 52.0 °F - 35.1 °F 53% 30.08 in 10.0 mi SE 4.6 mph - N/A   Scattered Clouds
11:53 PM 52.0 °F - 36.0 °F 54% 30.09 in 10.0 mi ESE 6.9 mph - N/A   Mostly Cloudy